THOR ABLESTAR DEB, 15558

Orbit data source: Space-Track

THOR ABLESTAR DEB, 15558 is space debris in LEO originally from a launch on Thu, 29 Jun 1961 UTC launched from the Air Force Eastern Test Range (AFETR). Debris objects in space refer to the collection of defunct objects orbiting the Earth. Examples of debris include non-operational satellites, rocket bodies, and fragments generated from explosions, collisions, or faulty payload assembly.

Loading next visibility...
Identifier
15558, 1961-015LE
Orbit
LEO
Country
Flag of USUS
Related business
Manufacturer
Unknown
Mission
Spacecraft
Bus & Motor
Unknown
Mass
Unknown
Launch date (UTC)
1961-06-29 (65 years ago)
Launch vehicle
Unknown
Launch site
Air Force Eastern Test Range (AFETR)
Object type
Payload
Rocket body
Debris
Shape & HBR
Unknown shape, 0.1 m
Radar Cross Section
Small (<0.1 m²)

Expand to show TLE details & history
Last TLE update: 3 days ago

TLE from 3 days ago
0 THOR ABLESTAR DEB
1 15558U 61015LE  26060.51882567  .00000275  00000-0  22437-3 0  9998
2 15558  65.5865 109.3952 0044965 140.8597 219.5746 14.04873104109154
Epoch: 2026-03-01T12:27Z
TLE epoch observation values (Epoch: 2026-03-01T12:27:06.537Z)
Latitude
-0.00004°
Longitude
123.29251°
Altitude
904.171 km
Speed
7.388 km/s
True Right ascension
07h 17m 34s
True Declination
0° 00' 00"
Sunlit
Object was in full shadow at epoch
Visualization orbit readout
Latitude
Unknown
Longitude
Unknown
Altitude
Unknown
Speed
Unknown
Apparent Right ascension
Unknown
Apparent Declination
Unknown
Sunlit
N/A
Visualization observer readout
Local Sidereal Time
00:09:32
Azimuth
Unknown
Elevation
Unknown
Doppler factor
Unknown
Orbital elements
Apogee altitude
908.11 km
Perigee altitude
842.878 km
Semi-major axis
7,253.631 km
Eccentricity
0.0045
Inclination
65.5865°
RAAN
109.3952°
Arg. of periapsis
140.8597°
True anomaly
219.24775°
Mean anomaly
219.5746°
Eccentric anomaly
219.41104°
Mean motion
3.51326 °/min
Orbital period
102.47 mins
BSTAR
0.00022437

Documentation

Showing up to 5 results
|